Showing default

LEMUR 2 HUBBLE-4, 64565

Orbit data source: Space-Track

LEMUR 2 HUBBLE-4, 64565 is an American payload satellite in SSO that was launched on Mon, 23 Jun 2025 UTC via an FALCON 9 launch vehicle from the Air Force Western Test Range (AFWTR). Payload-class satellites include a variety of spacecraft equipped with specific instruments for various scientific and technological missions. These include communications satellites like Starlink; space stations such as the ISS; scientific satellites like the Hubble; Earth observation satellites from companies like Planet Labs, Umbra, and HawkEye 360; GPS; miniature CubeSats for education and research; and military/defense satellites.

Loading next visibility...
Identifier
64565, 2025-135AP
Orbit
SSO
Country
Flag of USUS
Related business
Manufacturer
Spire/Glasgow
Mission
Operational Commercial Communications
Bus & Motor
CUBESAT 16U, Unknown motor
Mass
22 kg wet, 22 kg dry
Launch date (UTC)
2025-06-23 (1 year ago)
Launch vehicle
FALCON 9
Launch site
Air Force Western Test Range (AFWTR)
Object type
Payload
Rocket body
Debris
Shape & HBR
Box + 4 Pan, 1.4 m
Radar Cross Section
0.326 m², Medium (>0.1 m² and < 1m²)

Expand to show TLE details & history
Last TLE update: 14 hours ago

TLE from 14 hours ago
0 LEMUR 2 HUBBLE-4
1 64565U 25135AP  26171.28592367  .00000980  00000-0  99230-4 0  9995
2 64565  97.7702 285.1541 0000888 282.2491  77.8629 14.93205398 54336
Epoch: 2026-06-20T06:51Z
TLE epoch observation values (Epoch: 2026-06-20T06:51:43.805Z)
Latitude
-0°
Longitude
-86.28115°
Altitude
590.862 km
Speed
7.565 km/s
True Right ascension
19h 00m 36s
True Declination
0° 00' 00"
Sunlit
Object was in full shadow at epoch
Visualization orbit readout
Latitude
Unknown
Longitude
Unknown
Altitude
Unknown
Speed
Unknown
Apparent Right ascension
Unknown
Apparent Declination
Unknown
Sunlit
N/A
Visualization observer readout
Local Sidereal Time
07:21:00
Azimuth
Unknown
Elevation
Unknown
Doppler factor
Unknown
Orbital elements
Apogee altitude
585.584 km
Perigee altitude
584.348 km
Semi-major axis
6,963.103 km
Eccentricity
0.00009
Inclination
97.7702°
RAAN
285.1541°
Arg. of periapsis
282.2491°
True anomaly
77.87285°
Mean anomaly
77.8629°
Eccentric anomaly
77.86787°
Mean motion
3.73542 °/min
Orbital period
96.37 mins
BSTAR
0.00009923
Loading maneuver chart data...
Computing Atmospheric mass density...
Loading historical data...
Loading historical data...
Loading historical data...
Loading historical data...
Loading historical data...
Loading historical data...
Loading historical data...

Documentation

Showing up to 5 results
|